Time,TemperatureF,DewpointF,PressureIn,WindDirection,WindDirectionDegrees,WindSpeedMPH,WindSpeedGustMPH,Humidity,HourlyPrecipIn,Conditions,Clouds,dailyrainin,SoftwareType,DateUTC
2015-04-25 00:10:00,41.1,40.0,29.84,SSE,160,0.0,4.0,94,0.17,,,0.42,weatherlink.com 1.10,2015-04-25 07:10:00,
2015-04-25 00:25:00,40.9,39.0,29.83,SSE,160,0.0,1.0,94,0.18,,,0.47,weatherlink.com 1.10,2015-04-25 07:25:00,
2015-04-25 00:40:00,40.8,39.0,29.83,SE,145,0.0,1.0,94,0.19,,,0.52,weatherlink.com 1.10,2015-04-25 07:40:00,
2015-04-25 01:10:00,41.3,40.0,29.82,South,180,0.0,3.0,94,0.19,,,0.62,weatherlink.com 1.10,2015-04-25 08:10:00,
2015-04-25 01:25:00,41.4,40.0,29.82,South,180,0.0,2.0,95,0.19,,,0.66,weatherlink.com 1.10,2015-04-25 08:25:00,
2015-04-25 01:40:00,41.4,40.0,29.81,South,180,0.0,1.0,95,0.18,,,0.70,weatherlink.com 1.10,2015-04-25 08:40:00,
2015-04-25 01:55:00,41.6,40.0,29.81,South,180,0.0,1.0,95,0.18,,,0.04,weatherlink.com 1.10,2015-04-25 08:55:00,
2015-04-25 02:10:00,41.8,41.0,29.80,South,186,0.0,1.0,95,0.16,,,0.08,weatherlink.com 1.10,2015-04-25 09:10:00,
2015-04-25 02:25:00,42.1,41.0,29.79,South,186,0.0,1.0,95,0.16,,,0.12,weatherlink.com 1.10,2015-04-25 09:25:00,
2015-04-25 02:40:00,42.2,41.0,29.78,SW,231,0.0,3.0,95,0.18,,,0.18,weatherlink.com 1.10,2015-04-25 09:40:00,
2015-04-25 02:55:00,42.4,41.0,29.78,WSW,237,0.0,0.0,95,0.18,,,0.22,weatherlink.com 1.10,2015-04-25 09:55:00,
2015-04-25 03:10:00,42.4,41.0,29.78,WSW,237,0.0,1.0,95,0.22,,,0.30,weatherlink.com 1.10,2015-04-25 10:10:00,
2015-04-25 03:25:00,42.4,41.0,29.77,WSW,237,0.0,0.0,95,0.23,,,0.35,weatherlink.com 1.10,2015-04-25 10:25:00,
2015-04-25 03:40:00,42.5,41.0,29.78,SW,233,0.0,0.0,95,0.20,,,0.38,weatherlink.com 1.10,2015-04-25 10:40:00,
2015-04-25 03:55:00,42.5,41.0,29.78,South,189,0.0,3.0,95,0.16,,,0.38,weatherlink.com 1.10,2015-04-25 10:55:00,
2015-04-25 04:10:00,42.6,41.0,29.78,SSW,209,0.0,2.0,95,0.08,,,0.38,weatherlink.com 1.10,2015-04-25 11:10:00,
2015-04-25 04:25:00,42.7,41.0,29.78,SSW,212,0.0,2.0,95,0.03,,,0.38,weatherlink.com 1.10,2015-04-25 11:25:00,
2015-04-25 04:40:00,42.7,41.0,29.78,SW,224,0.0,3.0,95,0.02,,,0.40,weatherlink.com 1.10,2015-04-25 11:40:00,
2015-04-25 04:55:00,42.8,42.0,29.79,SSW,213,0.0,0.0,95,0.02,,,0.40,weatherlink.com 1.10,2015-04-25 11:55:00,
2015-04-25 05:10:00,43.0,42.0,29.79,South,188,0.0,3.0,95,0.03,,,0.41,weatherlink.com 1.10,2015-04-25 12:10:00,
2015-04-25 05:25:00,43.2,42.0,29.80,SSW,202,0.0,0.0,95,0.04,,,0.42,weatherlink.com 1.10,2015-04-25 12:25:00,
2015-04-25 05:40:00,43.3,42.0,29.80,SSW,202,0.0,0.0,95,0.02,,,0.42,weatherlink.com 1.10,2015-04-25 12:40:00,
2015-04-25 05:55:00,43.4,42.0,29.81,SSW,202,0.0,0.0,95,0.02,,,0.42,weatherlink.com 1.10,2015-04-25 12:55:00,
2015-04-25 06:10:00,43.3,42.0,29.81,SSW,207,0.0,0.0,95,0.00,,,0.42,weatherlink.com 1.10,2015-04-25 13:10:00,
2015-04-25 06:26:00,43.0,42.0,29.81,SSW,207,0.0,0.0,95,0.00,,,0.42,weatherlink.com 1.10,2015-04-25 13:26:00,
2015-04-25 06:40:00,43.0,42.0,29.81,SSW,207,0.0,0.0,95,0.00,,,0.42,weatherlink.com 1.10,2015-04-25 13:40:00,
2015-04-25 06:55:00,43.2,42.0,29.82,SSW,207,0.0,0.0,95,0.00,,,0.42,weatherlink.com 1.10,2015-04-25 13:55:00,
2015-04-25 07:11:00,43.2,42.0,29.82,SSW,207,0.0,0.0,95,0.00,,,0.42,weatherlink.com 1.10,2015-04-25 14:11:00,
2015-04-25 07:25:00,43.1,42.0,29.83,SSW,207,0.0,0.0,95,0.00,,,0.42,weatherlink.com 1.10,2015-04-25 14:25:00,
2015-04-25 07:40:00,43.1,42.0,29.83,SSW,207,0.0,1.0,95,0.00,,,0.42,weatherlink.com 1.10,2015-04-25 14:40:00,
2015-04-25 07:55:00,43.4,42.0,29.84,SSW,207,0.0,0.0,95,0.00,,,0.42,weatherlink.com 1.10,2015-04-25 14:55:00,
2015-04-25 08:11:00,43.3,42.0,29.84,SSW,207,0.0,0.0,95,0.00,,,0.42,weatherlink.com 1.10,2015-04-25 15:11:00,
2015-04-25 08:26:00,43.5,42.0,29.85,SSW,207,0.0,0.0,95,0.00,,,0.42,weatherlink.com 1.10,2015-04-25 15:26:00,
2015-04-25 08:41:00,43.7,42.0,29.85,SSW,207,0.0,0.0,95,0.00,,,0.42,weatherlink.com 1.10,2015-04-25 15:41:00,
2015-04-25 08:56:00,43.6,42.0,29.86,SSW,207,0.0,0.0,95,0.00,,,0.42,weatherlink.com 1.10,2015-04-25 15:56:00,